Little Falls, MN

9:13 AM CST on December 07, 2016 (GMT -0600)
Little Falls-Morrison County

Weather History for KLXL - October, 2013

Change the Weather History Date:

Wednesday, October 9, 2013

  Actual Average Record
Temperature  
Mean Temperature 61 °F -  
Max Temperature 71 °F 59 °F 78 °F (1943)
Min Temperature 51 °F 36 °F 23 °F (2000)
Degree Days  
Heating Degree Days 4    
Growing Degree Days 11 (Base 50)    
Moisture  
Dew Point 46 °F    
Average Humidity 59    
Maximum Humidity 76    
Minimum Humidity 43    
Precipitation  
Precipitation 0.00 in - - ()
Sea Level Pressure  
Sea Level Pressure 29.96 in    
Wind  
Wind Speed 7 mph (SSE)    
Max Wind Speed 12 mph    
Max Gust Speed 16 mph    
Visibility 10 miles    
Events      
Averages and records for this station are not official NWS values.
T = Trace of Precipitation, MM = Missing Value Source: NWS Daily Summary

Daily Weather History Graph

Daily Weather History Graph

Search for Another Location

Airport or City:

Trip Planner

Search our weather history database for the weather conditions in past years. The results will help you decide how hot, cold, wet, or windy it might be!

Date:

Astronomy

Oct. 09, 2013 Rise Set
Actual Time 7:26 AM CDT 6:41 PM CDT
Civil Twilight 6:56 AM CDT 7:11 PM CDT
Nautical Twilight 6:22 AM CDT 7:46 PM CDT
Astronomical Twilight 5:47 AM CDT 8:20 PM CDT
Moon 12:35 PM CDT (10/9) 10:04 PM CDT (10/9)
Length of Visible Light 12h 15m
Length of Day
11h 15m
Waxing Crescent, 25% of the Moon is Illuminated
Oct 9
Waxing Crescent
Oct 11
First Quarter
Oct 18
Full
Oct 26
Last Quarter
Nov 3
New

Hourly Weather History & Observations

Time (CDT) Temp. Dew Point Humidity Pressure Visibility Wind Dir Wind Speed Gust Speed Precip Events Conditions
12:15 AM 62.6 °F 42.8 °F 48% 29.85 in 10.0 mi South 10.4 mph 16.1 mph N/A   Clear
12:34 AM 62.6 °F 42.8 °F 48% 29.86 in 10.0 mi South 11.5 mph - N/A   Clear
12:55 AM 62.6 °F 42.8 °F 48% 29.86 in 10.0 mi South 10.4 mph - N/A   Clear
1:14 AM 60.8 °F 42.8 °F 52% 29.87 in 10.0 mi South 10.4 mph - N/A   Clear
1:34 AM 60.8 °F 42.8 °F 52% 29.88 in 10.0 mi South 9.2 mph - N/A   Clear
1:55 AM 60.8 °F 42.8 °F 52% 29.88 in 10.0 mi South 9.2 mph 16.1 mph N/A   Clear
2:14 AM 60.8 °F 42.8 °F 52% 29.89 in 10.0 mi South 9.2 mph 16.1 mph N/A   Clear
2:34 AM 60.8 °F 42.8 °F 52% 29.89 in 10.0 mi South 10.4 mph 16.1 mph N/A   Clear
2:55 AM 59.0 °F 42.8 °F 55% 29.90 in 10.0 mi South 9.2 mph - N/A   Clear
3:14 AM 59.0 °F 44.6 °F 59% 29.90 in 10.0 mi South 9.2 mph - N/A   Clear
3:34 AM 59.0 °F 44.6 °F 59% 29.90 in 10.0 mi South 8.1 mph - N/A   Clear
3:55 AM 59.0 °F 44.6 °F 59% 29.90 in 10.0 mi South 6.9 mph - N/A   Clear
4:14 AM 57.2 °F 44.6 °F 63% 29.91 in 10.0 mi South 5.8 mph - N/A   Clear
4:34 AM 57.2 °F 44.6 °F 63% 29.91 in 10.0 mi South 5.8 mph - N/A   Clear
4:55 AM 55.4 °F 44.6 °F 67% 29.91 in 10.0 mi South 4.6 mph - N/A   Clear
5:14 AM 55.4 °F 44.6 °F 67% 29.92 in 10.0 mi South 5.8 mph - N/A   Clear
5:34 AM 55.4 °F 44.6 °F 67% 29.92 in 10.0 mi South 5.8 mph - N/A   Clear
5:54 AM 55.4 °F 44.6 °F 67% 29.92 in 10.0 mi SSE 5.8 mph - N/A   Clear
6:14 AM 53.6 °F 44.6 °F 72% 29.92 in 10.0 mi SSE 5.8 mph - N/A   Clear
6:35 AM 53.6 °F 44.6 °F 72% 29.93 in 10.0 mi SSE 5.8 mph - N/A   Clear
6:54 AM 53.6 °F 44.6 °F 72% 29.93 in 10.0 mi SSE 5.8 mph - N/A   Clear
7:14 AM 53.6 °F 44.6 °F 72% 29.93 in 10.0 mi SSE 5.8 mph - N/A   Clear
7:35 AM 51.8 °F 44.6 °F 76% 29.94 in 10.0 mi SSE 6.9 mph - N/A   Clear
7:54 AM 51.8 °F 44.6 °F 76% 29.94 in 10.0 mi SSE 6.9 mph - N/A   Clear
8:14 AM 51.8 °F 44.6 °F 76% 29.95 in 10.0 mi SSE 6.9 mph - N/A   Clear
8:35 AM 51.8 °F 44.6 °F 76% 29.96 in 10.0 mi SSE 5.8 mph - N/A   Clear
8:54 AM 53.6 °F 44.6 °F 72% 29.96 in 10.0 mi SSE 5.8 mph - N/A   Clear
9:14 AM 55.4 °F 46.4 °F 72% 29.96 in 10.0 mi SSE 6.9 mph - N/A   Clear
9:35 AM 55.4 °F 46.4 °F 72% 29.97 in 10.0 mi South 5.8 mph - N/A   Clear
9:54 AM 59.0 °F 46.4 °F 63% 29.97 in 10.0 mi South 5.8 mph - N/A   Clear
10:14 AM 60.8 °F 46.4 °F 59% 29.98 in 10.0 mi South 8.1 mph 16.1 mph N/A   Clear
10:35 AM 60.8 °F 46.4 °F 59% 29.99 in 10.0 mi SSW 9.2 mph - N/A   Clear
11:15 AM 62.6 °F 46.4 °F 55% 29.99 in 10.0 mi South 10.4 mph - N/A   Clear
11:34 AM 62.6 °F 46.4 °F 55% 29.99 in 10.0 mi SSW 9.2 mph - N/A   Clear
11:54 AM 64.4 °F 48.2 °F 56% 29.99 in 10.0 mi SSW 9.2 mph - N/A   Clear
12:15 PM 64.4 °F 46.4 °F 52% 29.99 in 10.0 mi South 5.8 mph - N/A   Clear
12:34 PM 64.4 °F 48.2 °F 56% 29.99 in 10.0 mi South 5.8 mph - N/A   Clear
12:54 PM 66.2 °F 46.4 °F 49% 29.99 in 10.0 mi South 5.8 mph - N/A   Clear
1:15 PM 66.2 °F 48.2 °F 52% 29.99 in 10.0 mi South 5.8 mph - N/A   Clear
1:34 PM 68.0 °F 48.2 °F 49% 29.99 in 10.0 mi South 4.6 mph - N/A   Clear
1:54 PM 68.0 °F 46.4 °F 46% 29.99 in 10.0 mi South 10.4 mph - N/A   Clear
2:15 PM 68.0 °F 48.2 °F 49% 29.99 in 10.0 mi SSW 4.6 mph - N/A   Clear
2:34 PM 69.8 °F 48.2 °F 46% 29.99 in 10.0 mi SSW 5.8 mph - N/A   Clear
2:54 PM 69.8 °F 48.2 °F 46% 29.98 in 10.0 mi South 4.6 mph - N/A   Clear
3:15 PM 69.8 °F 48.2 °F 46% 29.98 in 10.0 mi SSW 5.8 mph - N/A   Clear
3:34 PM 69.8 °F 48.2 °F 46% 29.98 in 10.0 mi South 4.6 mph - N/A   Clear
3:54 PM 71.6 °F 48.2 °F 43% 29.99 in 10.0 mi SSW 8.1 mph - N/A   Clear
4:15 PM 71.6 °F 48.2 °F 43% 29.98 in 10.0 mi South 4.6 mph - N/A   Clear
4:34 PM 71.6 °F 48.2 °F 43% 29.98 in 10.0 mi South 5.8 mph - N/A   Clear
4:54 PM 71.6 °F 48.2 °F 43% 29.98 in 10.0 mi South 5.8 mph - N/A   Clear
5:15 PM 71.6 °F 48.2 °F 43% 29.98 in 10.0 mi Calm Calm - N/A   Clear
5:35 PM 71.6 °F 48.2 °F 43% 29.98 in 10.0 mi Calm Calm - N/A   Clear
5:54 PM 69.8 °F 50.0 °F 49% 29.98 in 10.0 mi Calm Calm - N/A   Clear
6:15 PM 68.0 °F 51.8 °F 56% 29.98 in 10.0 mi ESE 3.5 mph - N/A   Clear
6:35 PM 64.4 °F 51.8 °F 64% 29.98 in 10.0 mi ESE 3.5 mph - N/A   Clear
6:54 PM 64.4 °F 50.0 °F 59% 29.98 in 10.0 mi ESE 3.5 mph - N/A   Clear
7:15 PM 62.6 °F 50.0 °F 63% 29.98 in 10.0 mi Calm Calm - N/A   Clear
7:34 PM 60.8 °F 50.0 °F 68% 29.99 in 10.0 mi Calm Calm - N/A   Clear
7:54 PM 60.8 °F 50.0 °F 68% 29.99 in 10.0 mi ESE 4.6 mph - N/A   Clear
8:14 PM 62.6 °F 50.0 °F 63% 29.99 in 10.0 mi ESE 4.6 mph - N/A   Clear
8:34 PM 62.6 °F 50.0 °F 63% 29.99 in 10.0 mi ESE 4.6 mph - N/A   Clear
8:55 PM 62.6 °F 48.2 °F 59% 29.99 in 10.0 mi ESE 5.8 mph - N/A   Clear
9:14 PM 60.8 °F 48.2 °F 63% 29.99 in 10.0 mi ESE 5.8 mph - N/A   Clear
9:34 PM 60.8 °F 48.2 °F 63% 30.00 in 10.0 mi SE 6.9 mph - N/A   Clear
9:55 PM 60.8 °F 48.2 °F 63% 30.00 in 10.0 mi ESE 5.8 mph - N/A   Clear
10:15 PM 60.8 °F 46.4 °F 59% 30.00 in 10.0 mi ESE 5.8 mph - N/A   Clear
10:34 PM 59.0 °F 46.4 °F 63% 30.01 in 10.0 mi ESE 5.8 mph - N/A   Clear
10:55 PM 59.0 °F 46.4 °F 63% 30.01 in 10.0 mi ESE 5.8 mph - N/A   Clear
11:15 PM 57.2 °F 46.4 °F 67% 30.02 in 10.0 mi ESE 4.6 mph - N/A   Clear
11:34 PM 55.4 °F 46.4 °F 72% 30.02 in 10.0 mi ESE 4.6 mph - N/A   Clear
11:55 PM 55.4 °F 46.4 °F 72% 30.02 in 10.0 mi SE 6.9 mph - N/A   Clear